Location: Miss�
(46.9484°N, 0.1922°W)
Time: 01:53:24
(UTC+00:00)

Okean O Rocket - Pass Details

Date: 02 March 2021
Orbit: 623 x 643 km, 98.2° (Epoch: 17 April)

Event Time Altitude Azimuth Distance (km) Brightness Sun altitude
Rises 18:23:02 0° 191° (S) 2,894 5.2 -6.8°
Reaches altitude 10° 18:25:25 10° 202° (SSW) 1,991 4.5 -7.2°
Maximum altitude 18:29:15 30° 264° (W) 1,117 3.9 -7.8°
Drops below altitude 10° 18:33:07 10° 326° (NNW) 2,006 4.7 -8.5°
Sets 18:35:32 0° 337° (NNW) 2,919 5.3 -8.9°
